Weather History for West Yellowstone, MT

Change the Weather History Date:

Friday, November 23, 2012

  Actual Average Record
Temperature  
Mean Temperature 24 °F -  
Max Temperature 35 °F 27 °F 39 °F (2011)
Min Temperature 14 °F 5 °F 5 °F (2010)
Degree Days  
Heating Degree Days 40    
Moisture  
Dew Point -    
Average Humidity    
Maximum Humidity    
Minimum Humidity    
Precipitation  
Precipitation 0.00 in - - ()
Sea Level Pressure  
Sea Level Pressure 30.41 in    
Wind  
Wind Speed 1 mph (South)    
Max Wind Speed 13 mph    
Max Gust Speed 17 mph    
Visibility 10 miles    
Events      
Averages and records for this station are not official NWS values.
T = Trace of Precipitation, MM = Missing Value Source: NWS Daily Summary

Daily Weather History Graph

Daily Weather History Graph

Search for Another Location

Airport:

Trip Planner

Search our weather history database for the weather conditions in past years. The results will help you decide how hot, cold, wet, or windy it might be!

Date:

Astronomy

Nov. 23, 2012 Rise Set
Actual Time 7:32 AM MST 4:49 PM MST
Civil Twilight 7:00 AM MST 5:21 PM MST
Nautical Twilight 6:24 AM MST 5:57 PM MST
Astronomical Twilight 5:49 AM MST 6:32 PM MST
Moon 2:14 PM MST (11/23) 2:45 AM MST (11/23)
Length of Visible Light 10h 21m
Length of Day
9h 16m
Waxing Gibbous, 80% of the Moon is Illuminated
Nov 23
Waxing Gibbous
Nov 28
Full
Dec 6
Last Quarter
Dec 13
New
Dec 19
First Quarter

Hourly Weather History & Observations

Time (MST) Temp. Windchill Dew Point Humidity Pressure Visibility Wind Dir Wind Speed Gust Speed Precip Events Conditions
12:10 AM 17.6 °F - - N/A% 30.50 in 10.0 mi Calm Calm - N/A   Overcast
12:30 AM 17.6 °F - - N/A% 30.49 in 10.0 mi Calm Calm - N/A   Overcast
12:50 AM 17.6 °F - - N/A% 30.49 in 10.0 mi Calm Calm - N/A   Overcast
1:10 AM 17.6 °F - - N/A% 30.49 in 10.0 mi Calm Calm - N/A   Overcast
1:30 AM 17.6 °F - - N/A% 30.49 in 10.0 mi Calm Calm - N/A   Overcast
1:50 AM 19.4 °F - - N/A% 30.49 in 10.0 mi Calm Calm - N/A   Overcast
2:10 AM 19.4 °F - - N/A% 30.50 in 10.0 mi Calm Calm - N/A   Overcast
2:30 AM 19.4 °F - - N/A% 30.50 in 10.0 mi Calm Calm - N/A   Overcast
2:50 AM 19.4 °F - - N/A% 30.50 in 10.0 mi Calm Calm - N/A   Overcast
3:10 AM 19.4 °F - - N/A% 30.49 in 10.0 mi Calm Calm - N/A   Overcast
3:30 AM 19.4 °F - - N/A% 30.49 in 10.0 mi Calm Calm - N/A   Overcast
3:50 AM 19.4 °F - - N/A% 30.49 in 10.0 mi Calm Calm - N/A   Overcast
4:10 AM 19.4 °F - - N/A% 30.49 in 10.0 mi Calm Calm - N/A   Overcast
4:30 AM 17.6 °F - - N/A% 30.48 in 10.0 mi Calm Calm - N/A   Overcast
4:50 AM 17.6 °F - - N/A% 30.48 in 10.0 mi Calm Calm - N/A   Scattered Clouds
5:10 AM 15.8 °F - - N/A% 30.49 in 10.0 mi Calm Calm - N/A   Partly Cloudy
5:30 AM 14.0 °F - - N/A% 30.48 in 10.0 mi Calm Calm - N/A   Scattered Clouds
5:50 AM 14.0 °F - - N/A% 30.49 in 10.0 mi Calm Calm - N/A   Overcast
6:10 AM 14.0 °F - - N/A% 30.49 in 10.0 mi Calm Calm - N/A   Overcast
6:30 AM 14.0 °F - - N/A% 30.48 in 10.0 mi Calm Calm - N/A   Mostly Cloudy
6:50 AM 14.0 °F - - N/A% 30.49 in 10.0 mi Calm Calm - N/A   Overcast
7:10 AM 14.0 °F - - N/A% 30.49 in 10.0 mi Calm Calm - N/A   Mostly Cloudy
7:30 AM 14.0 °F - - N/A% 30.48 in 10.0 mi Calm Calm - N/A   Mostly Cloudy
7:50 AM 14.0 °F - - N/A% 30.49 in 10.0 mi Calm Calm - N/A   Overcast
8:10 AM 14.0 °F - - N/A% 30.48 in 10.0 mi Calm Calm - N/A   Mostly Cloudy
8:30 AM 14.0 °F - - N/A% 30.50 in 10.0 mi Calm Calm - N/A   Partly Cloudy
8:50 AM 15.8 °F - - N/A% 30.49 in 10.0 mi Calm Calm - N/A   Clear
9:10 AM 15.8 °F - - N/A% 30.50 in 10.0 mi Calm Calm - N/A   Clear
9:30 AM 17.6 °F - - N/A% 30.49 in 10.0 mi Calm Calm - N/A   Clear
9:50 AM 19.4 °F - - N/A% 30.49 in 10.0 mi Calm Calm - N/A   Clear
10:10 AM 19.4 °F - - N/A% 30.49 in 10.0 mi Calm Calm - N/A   Clear
10:30 AM 21.2 °F - - N/A% 30.49 in 10.0 mi Calm Calm - N/A   Clear
10:50 AM 23.0 °F - - N/A% 30.47 in 10.0 mi Calm Calm - N/A   Clear
11:10 AM 23.0 °F - - N/A% 30.46 in 10.0 mi Calm Calm - N/A   Clear
11:30 AM 24.8 °F - - N/A% 30.45 in 10.0 mi Calm Calm - N/A   Clear
11:50 AM 24.8 °F 20.5 °F - N/A% 30.45 in 10.0 mi ENE 3.5 mph - N/A   Clear
12:10 PM 26.6 °F - - N/A% 30.43 in 10.0 mi Calm Calm - N/A   Clear
12:30 PM 28.4 °F - - N/A% 30.41 in 10.0 mi Calm Calm - N/A   Clear
12:50 PM 30.2 °F 26.7 °F - N/A% 30.40 in 10.0 mi NE 3.5 mph - N/A   Clear
1:10 PM 32.0 °F - - N/A% 30.39 in 10.0 mi Calm Calm - N/A   Clear
1:30 PM 32.0 °F 28.7 °F - N/A% 30.39 in 10.0 mi ENE 3.5 mph - N/A   Clear
1:50 PM 35.6 °F 28.0 °F - N/A% 30.38 in 10.0 mi SSW 10.4 mph - N/A   Clear
2:10 PM 35.6 °F 27.1 °F - N/A% 30.37 in 10.0 mi SSW 12.7 mph - N/A   Clear
2:30 PM 35.6 °F 28.0 °F - N/A% 30.36 in 10.0 mi SSW 10.4 mph - N/A   Clear
2:50 PM 35.6 °F 29.9 °F - N/A% 30.35 in 10.0 mi South 6.9 mph - N/A   Clear
3:10 PM 35.6 °F 28.6 °F - N/A% 30.35 in 10.0 mi SSW 9.2 mph - N/A   Clear
3:30 PM 35.6 °F 28.6 °F - N/A% 30.35 in 10.0 mi SW 9.2 mph - N/A   Clear
3:50 PM 33.8 °F 27.7 °F - N/A% 30.35 in 10.0 mi SSW 6.9 mph - N/A   Clear
4:10 PM 33.8 °F 27.0 °F - N/A% 30.34 in 10.0 mi SSW 8.1 mph - N/A   Clear
4:30 PM 32.0 °F 24.2 °F - N/A% 30.33 in 10.0 mi SSW 9.2 mph - N/A   Clear
4:50 PM 32.0 °F 24.8 °F - N/A% 30.33 in 10.0 mi SSW 8.1 mph - N/A   Clear
5:10 PM 32.0 °F 23.0 °F - N/A% 30.32 in 10.0 mi SW 11.5 mph 17.3 mph N/A   Clear
5:30 PM 32.0 °F 23.6 °F - N/A% 30.32 in 10.0 mi South 10.4 mph - N/A   Clear
5:50 PM 32.0 °F 26.4 °F - N/A% 30.32 in 10.0 mi SE 5.8 mph - N/A   Clear
6:10 PM 32.0 °F 24.2 °F - N/A% 30.32 in 10.0 mi SSE 9.2 mph - N/A   Clear
6:30 PM 30.2 °F 22.6 °F - N/A% 30.32 in 10.0 mi SE 8.1 mph - N/A   Clear
6:50 PM 30.2 °F 22.6 °F - N/A% 30.32 in 10.0 mi SSE 8.1 mph - N/A   Clear
7:10 PM 28.4 °F 22.2 °F - N/A% 30.31 in 10.0 mi SE 5.8 mph - N/A   Clear
7:30 PM 30.2 °F - - N/A% 30.31 in 10.0 mi Calm Calm - N/A   Clear
7:50 PM 28.4 °F - - N/A% 30.31 in 10.0 mi Calm Calm - N/A   Clear
8:10 PM 26.6 °F - - N/A% 30.31 in 10.0 mi Calm Calm - N/A   Clear
8:30 PM 26.6 °F 22.6 °F - N/A% 30.29 in 10.0 mi South 3.5 mph - N/A   Clear
8:50 PM 28.4 °F 24.6 °F - N/A% 30.29 in 10.0 mi SW 3.5 mph - N/A   Clear
9:10 PM 28.4 °F - - N/A% 30.28 in 10.0 mi Calm Calm - N/A   Clear
9:30 PM 28.4 °F - - N/A% 30.27 in 10.0 mi Calm Calm - N/A   Clear
9:50 PM 28.4 °F - - N/A% 30.28 in 10.0 mi Calm Calm - N/A   Clear
10:10 PM 24.8 °F - - N/A% 30.28 in 10.0 mi Calm Calm - N/A   Clear
10:30 PM 24.8 °F - - N/A% 30.28 in 10.0 mi Calm Calm - N/A   Clear
10:50 PM 24.8 °F - - N/A% 30.26 in 10.0 mi Calm Calm - N/A   Clear
11:10 PM 24.8 °F - - N/A% 30.25 in 10.0 mi Calm Calm - N/A   Clear
11:30 PM 23.0 °F 18.4 °F - N/A% 30.25 in 10.0 mi NNW 3.5 mph - N/A   Mostly Cloudy
11:50 PM 23.0 °F - - N/A% 30.25 in 10.0 mi Calm Calm - N/A   Scattered Clouds